This is the latest recevied weather packets stored in our database for station/object W1RCP. If no packets are shown the sender has not sent any weather packets the latest 10 day(s).
| Time | Temp. | Humidity | Pressure | Rain* | Wind** | Luminosity | Snow |
|---|---|---|---|---|---|---|---|
| 1787837381 | 28.33° C | 83% | 1026.9 hPa | 0 mm | - | 209 W/m² | - |
| 1787837076 | 28.33° C | 82% | 1026.7 hPa | 0 mm | - | 189 W/m² | - |
| 1787836775 | 27.78° C | 83% | 1026.8 hPa | 0 mm | - | 169 W/m² | - |
| 1787836471 | 27.22° C | 85% | 1026.5 hPa | 0 mm | - | 151 W/m² | - |
| 1787836166 | 27.78° C | 84% | 1026.9 hPa | 0 mm | - | 136 W/m² | - |
| 1787835861 | 27.22° C | 86% | 1026.8 hPa | 0 mm | - | 120 W/m² | - |
| 1787835562 | 26.67° C | 89% | 1026.8 hPa | 0 mm | - | 108 W/m² | - |
| 1787835250 | 26.67° C | 89% | 1027 hPa | 0 mm | - | 101 W/m² | - |
| 1787834946 | 26.11° C | 90% | 1027 hPa | 0 mm | - | 95 W/m² | - |
| 1787834644 | 26.11° C | 92% | 1027 hPa | 0 mm | - | 84 W/m² | - |
| 1787834340 | 25.56° C | 94% | 1027 hPa | 0 mm | - | 64 W/m² | - |
| 1787834035 | 25° C | 99% | 1026.9 hPa | 0 mm | - | 53 W/m² | - |
| 1787833730 | 24.44° C | 99% | 1026.8 hPa | 0 mm | - | 48 W/m² | - |
| 1787833426 | 24.44° C | 99% | 1026.9 hPa | 0 mm | - | 46 W/m² | - |
| 1787833121 | 24.44° C | 99% | 1026.8 hPa | 0 mm | - | 44 W/m² | - |
| 1787832816 | 25° C | 99% | 1026.6 hPa | 0 mm | - | 42 W/m² | - |
| 1787832512 | 23.89° C | 99% | 1026.7 hPa | 0 mm | - | 40 W/m² | - |
| 1787832211 | 23.89° C | 99% | 1026.7 hPa | 0 mm | - | 37 W/m² | - |
| 1787831909 | 23.33° C | 99% | 1026.5 hPa | 0 mm | - | 35 W/m² | - |
| 1787831605 | 23.33° C | 99% | 1026.4 hPa | 0 mm | - | 32 W/m² | - |
| 1787831303 | 22.78° C | 99% | 1026.6 hPa | 0 mm | - | 30 W/m² | - |
| 1787831000 | 22.78° C | 99% | 1026.7 hPa | 0 mm | - | 27 W/m² | - |
| 1787830699 | 22.78° C | 99% | 1026.4 hPa | 0 mm | - | 24 W/m² | - |
| 1787830397 | 22.78° C | 99% | 1026.4 hPa | 0 mm | - | 21 W/m² | - |
| 1787830093 | 22.78° C | 99% | 1026.4 hPa | 0 mm | - | 17 W/m² | - |
* Rain latest hour (hover to see other rain measurements)
** Current wind speed in m/s (hover to see current wind gust speed)